This is the latest recevied weather packets stored in our database for station/object KI4BSX. If no packets are shown the sender has not sent any weather packets the latest 10 day(s).
| Time | Temp. | Humidity | Pressure | Rain* | Wind** | Luminosity | Snow |
|---|---|---|---|---|---|---|---|
| 1778079535 | 21.67° C | 79% | 1017.8 hPa | 0 mm | - | - | - |
| 1778079231 | 21.67° C | 80% | 1017.7 hPa | 0 mm | - | - | - |
| 1778078929 | 21.11° C | 80% | 1017.7 hPa | 0 mm | - | - | - |
| 1778078625 | 21.11° C | 80% | 1017.8 hPa | 0 mm | - | - | - |
| 1778078324 | 20.56° C | 80% | 1017.4 hPa | 0 mm | - | - | - |
| 1778078021 | 21.11° C | 80% | 1017.6 hPa | 0 mm | - | - | - |
| 1778077719 | 21.11° C | 81% | 1017.5 hPa | 0 mm | - | - | - |
| 1778077417 | 20.56° C | 82% | 1017.3 hPa | 0 mm | - | - | - |
| 1778077115 | 20.56° C | 82% | 1017.2 hPa | 0 mm | - | - | - |
| 1778076813 | 20° C | 83% | 1017.2 hPa | 0 mm | - | - | - |
| 1778076511 | 19.44° C | 83% | 1017.2 hPa | 0 mm | - | - | - |
| 1778076207 | 19.44° C | 83% | 1017.3 hPa | 0 mm | - | - | - |
| 1778075904 | 19.44° C | 83% | 1017.2 hPa | 0 mm | - | - | - |
| 1778075600 | 19.44° C | 83% | 1017.2 hPa | 0 mm | - | - | - |
| 1778075297 | 19.44° C | 83% | 1017.4 hPa | 0 mm | - | - | - |
| 1778074994 | 19.44° C | 83% | 1017.4 hPa | 0 mm | - | - | - |
| 1778074690 | 19.44° C | 83% | 1017.2 hPa | 0 mm | - | - | - |
| 1778074387 | 19.44° C | 83% | 1017.1 hPa | 0 mm | - | - | - |
| 1778074084 | 18.89° C | 83% | 1017.1 hPa | 0 mm | - | - | - |
| 1778073781 | 18.89° C | 84% | 1017.1 hPa | 0 mm | - | - | - |
| 1778073479 | 18.89° C | 84% | 1017.3 hPa | 0 mm | - | - | - |
| 1778073175 | 18.89° C | 85% | 1017.2 hPa | 0 mm | - | - | - |
| 1778072872 | 18.89° C | 85% | 1017.1 hPa | 0 mm | - | - | - |
| 1778072569 | 18.33° C | 84% | 1017.2 hPa | 0 mm | - | - | - |
| 1778072267 | 18.89° C | 84% | 1017.4 hPa | 0 mm | - | - | - |
* Rain latest hour (hover to see other rain measurements)
** Current wind speed in m/s (hover to see current wind gust speed)